TimeCDT,TemperatureF,Dew PointF,Humidity,Sea Level PressureIn,VisibilityMPH,Wind Direction,Wind SpeedMPH,Gust SpeedMPH,PrecipitationIn,Events,Conditions,WindDirDegrees,DateUTC
12:15 AM,51.4,43.5,74,30.19,10.0,Calm,Calm,-,N/A,,Overcast,0,2013-03-30 05:15:00
12:35 AM,50.5,42.3,73,30.20,10.0,Calm,Calm,-,N/A,,Mostly Cloudy,0,2013-03-30 05:35:00
12:55 AM,49.3,41.9,76,30.19,10.0,Calm,Calm,-,N/A,,Scattered Clouds,0,2013-03-30 05:55:00
1:15 AM,48.2,42.8,82,30.20,10.0,Calm,Calm,-,N/A,,Mostly Cloudy,0,2013-03-30 06:15:00
1:35 AM,48.0,43.0,83,30.20,10.0,NE,3.5,-,N/A,,Overcast,40,2013-03-30 06:35:00
1:55 AM,47.5,42.6,83,30.19,10.0,Calm,Calm,-,N/A,,Mostly Cloudy,0,2013-03-30 06:55:00
2:15 AM,46.2,41.5,84,30.19,10.0,Calm,Calm,-,N/A,,Scattered Clouds,0,2013-03-30 07:15:00
2:35 AM,45.1,40.6,84,30.19,10.0,Calm,Calm,-,N/A,,Scattered Clouds,0,2013-03-30 07:35:00
2:55 AM,44.2,40.5,87,30.18,10.0,Calm,Calm,-,N/A,,Clear,0,2013-03-30 07:55:00
3:15 AM,43.2,40.1,89,30.18,10.0,Calm,Calm,-,N/A,,Scattered Clouds,0,2013-03-30 08:15:00
3:35 AM,44.1,40.8,88,30.17,10.0,Calm,Calm,-,N/A,,Mostly Cloudy,0,2013-03-30 08:35:00
3:55 AM,45.0,41.2,87,30.16,10.0,Calm,Calm,-,N/A,,Overcast,0,2013-03-30 08:55:00
4:15 AM,44.4,41.4,89,30.16,10.0,Calm,Calm,-,N/A,,Overcast,0,2013-03-30 09:15:00
4:35 AM,44.2,41.5,90,30.16,10.0,Calm,Calm,-,N/A,,Mostly Cloudy,0,2013-03-30 09:35:00
4:55 AM,43.9,40.8,89,30.16,10.0,Calm,Calm,-,N/A,,Scattered Clouds,0,2013-03-30 09:55:00
5:15 AM,42.4,39.7,90,30.16,10.0,Calm,Calm,-,N/A,,Clear,0,2013-03-30 10:15:00
5:35 AM,41.7,39.6,92,30.17,10.0,Calm,Calm,-,N/A,,Clear,0,2013-03-30 10:35:00
5:55 AM,41.7,39.4,91,30.17,10.0,Calm,Calm,-,N/A,,Scattered Clouds,0,2013-03-30 10:55:00
6:15 AM,41.2,39.2,93,30.16,7.0,Calm,Calm,-,N/A,,Scattered Clouds,0,2013-03-30 11:15:00
6:35 AM,41.0,39.6,95,30.16,7.0,Calm,Calm,-,N/A,,Mostly Cloudy,0,2013-03-30 11:35:00
6:55 AM,41.0,39.4,94,30.17,10.0,NNE,3.5,-,N/A,,Mostly Cloudy,30,2013-03-30 11:55:00
7:15 AM,41.4,39.4,93,30.17,10.0,Calm,Calm,-,N/A,,Scattered Clouds,0,2013-03-30 12:15:00
7:35 AM,42.4,40.1,91,30.18,7.0,Calm,Calm,-,N/A,,Clear,0,2013-03-30 12:35:00
7:55 AM,45.5,41.5,86,30.18,10.0,Calm,Calm,-,N/A,,Clear,0,2013-03-30 12:55:00
8:15 AM,49.8,41.5,73,30.19,10.0,Calm,Calm,-,N/A,,Scattered Clouds,0,2013-03-30 13:15:00
8:35 AM,53.2,40.1,61,30.18,10.0,Calm,Calm,-,N/A,,Mostly Cloudy,0,2013-03-30 13:35:00
8:55 AM,54.0,39.7,59,30.18,10.0,Calm,Calm,-,N/A,,Overcast,0,2013-03-30 13:55:00
9:15 AM,55.0,40.5,58,30.18,10.0,Calm,Calm,-,N/A,,Mostly Cloudy,0,2013-03-30 14:15:00
9:35 AM,57.0,41.5,56,30.17,10.0,Calm,Calm,-,N/A,,Mostly Cloudy,0,2013-03-30 14:35:00
9:55 AM,58.8,42.8,55,30.16,10.0,SE,3.5,-,N/A,,Mostly Cloudy,140,2013-03-30 14:55:00
10:15 AM,59.9,44.1,56,30.16,10.0,South,6.9,-,N/A,,Scattered Clouds,170,2013-03-30 15:15:00
10:35 AM,60.6,44.6,56,30.16,10.0,Calm,Calm,-,N/A,,Scattered Clouds,0,2013-03-30 15:35:00
10:55 AM,61.9,45.3,55,30.16,10.0,SSW,9.2,-,N/A,,Scattered Clouds,200,2013-03-30 15:55:00
11:15 AM,62.2,46.2,56,30.15,10.0,South,3.5,-,N/A,,Overcast,190,2013-03-30 16:15:00
11:35 AM,63.3,46.9,55,30.15,10.0,South,6.9,-,N/A,,Mostly Cloudy,170,2013-03-30 16:35:00
11:55 AM,64.6,47.5,54,30.13,10.0,Calm,Calm,-,N/A,,Scattered Clouds,0,2013-03-30 16:55:00
12:15 PM,66.0,47.1,50,30.13,10.0,SW,8.1,-,N/A,,Scattered Clouds,220,2013-03-30 17:15:00
12:35 PM,66.7,47.1,49,30.11,10.0,SW,4.6,-,N/A,,Scattered Clouds,220,2013-03-30 17:35:00
12:55 PM,66.9,46.4,48,30.11,10.0,SSE,8.1,-,N/A,,Scattered Clouds,160,2013-03-30 17:55:00
1:15 PM,65.8,46.0,49,30.11,10.0,South,5.8,-,N/A,,Mostly Cloudy,180,2013-03-30 18:15:00
1:35 PM,64.9,46.0,50,30.11,10.0,SSW,6.9,-,N/A,,Overcast,210,2013-03-30 18:35:00
1:55 PM,62.6,47.5,58,30.11,7.0,SW,4.6,-,N/A,Rain,Rain,220,2013-03-30 18:55:00
2:15 PM,58.1,51.4,78,30.11,10.0,SW,3.5,-,0.01,Rain,Light Rain,220,2013-03-30 19:15:00
2:35 PM,57.0,52.9,86,30.11,7.0,SW,3.5,-,0.02,Rain,Light Rain,220,2013-03-30 19:35:00
2:55 PM,56.1,53.4,91,30.10,4.0,Calm,Calm,-,0.08,Rain,Rain,0,2013-03-30 19:55:00
3:15 PM,55.0,52.9,92,30.11,4.0,WSW,3.5,-,0.04,Rain,Heavy Rain,240,2013-03-30 20:15:00
3:35 PM,54.7,53.4,96,30.10,4.0,Calm,Calm,-,0.08,Rain,Light Rain,0,2013-03-30 20:35:00
3:55 PM,54.9,53.6,96,30.10,4.0,Calm,Calm,-,0.09,Rain,Light Rain,0,2013-03-30 20:55:00
4:15 PM,54.9,53.8,96,30.09,4.0,Calm,Calm,-,0.02,Rain,Rain,0,2013-03-30 21:15:00
4:35 PM,55.0,53.8,96,30.08,5.0,Calm,Calm,-,0.03,Rain,Light Rain,0,2013-03-30 21:35:00
4:55 PM,55.4,54.1,96,30.07,5.0,Calm,Calm,-,0.04,Rain,Light Rain,0,2013-03-30 21:55:00
5:15 PM,55.4,54.3,96,30.07,4.0,Calm,Calm,-,0.01,Rain,Light Rain,0,2013-03-30 22:15:00
5:35 PM,55.4,54.3,96,30.06,4.0,Calm,Calm,-,0.02,Rain,Light Rain,0,2013-03-30 22:35:00
5:55 PM,55.4,54.5,97,30.06,2.5,Calm,Calm,-,0.04,Rain,Rain,0,2013-03-30 22:55:00
6:15 PM,55.0,54.5,98,30.05,2.5,Calm,Calm,-,0.01,Rain,Rain,0,2013-03-30 23:15:00
6:35 PM,54.9,54.3,98,30.04,3.0,Calm,Calm,-,0.04,Rain,Rain,0,2013-03-30 23:35:00
6:55 PM,54.7,54.0,97,30.04,5.0,Calm,Calm,-,0.05,Rain,Rain,0,2013-03-30 23:55:00
7:15 PM,54.5,53.8,97,30.04,5.0,Calm,Calm,-,0.01,Rain,Light Rain,0,2013-03-31 00:15:00
7:35 PM,54.3,53.8,98,30.03,5.0,Calm,Calm,-,0.02,Rain,Light Rain,0,2013-03-31 00:35:00
7:55 PM,54.0,53.6,99,30.03,5.0,SE,3.5,-,0.03,Rain,Light Rain,140,2013-03-31 00:55:00
8:15 PM,54.1,53.6,98,30.03,4.0,Calm,Calm,-,N/A,,Drizzle,0,2013-03-31 01:15:00
8:35 PM,54.3,54.0,99,30.03,3.0,SSE,4.6,-,0.01,Rain,Light Rain,150,2013-03-31 01:35:00
8:55 PM,54.5,54.0,98,30.03,4.0,SSE,5.8,-,0.02,Rain,Light Rain,160,2013-03-31 01:55:00
9:15 PM,54.1,53.8,99,30.04,4.0,South,6.9,-,0.01,Rain,Rain,170,2013-03-31 02:15:00
9:35 PM,54.0,53.6,99,30.03,4.0,SSE,6.9,-,0.02,Rain,Light Rain,160,2013-03-31 02:35:00
9:55 PM,54.0,53.4,98,30.03,5.0,SSE,5.8,-,0.02,Rain,Rain,160,2013-03-31 02:55:00
10:15 PM,54.0,53.4,98,30.03,4.0,SSE,5.8,-,N/A,,Drizzle,160,2013-03-31 03:15:00
10:35 PM,54.0,53.6,99,30.01,4.0,SSE,4.6,-,0.01,,Drizzle,160,2013-03-31 03:35:00
10:55 PM,54.0,53.6,99,30.01,5.0,South,3.5,-,0.01,,Overcast,180,2013-03-31 03:55:00
11:15 PM,54.1,53.6,98,30.01,3.0,SW,4.6,-,N/A,Rain,Light Rain,220,2013-03-31 04:15:00
11:35 PM,54.1,53.8,99,30.01,3.0,South,4.6,-,N/A,Rain,Light Rain,190,2013-03-31 04:35:00
11:55 PM,54.3,53.8,98,30.01,3.0,SSW,3.5,-,0.01,,Drizzle,210,2013-03-31 04:55:00